Time,TemperatureF,DewpointF,PressureIn,WindDirection,WindDirectionDegrees,WindSpeedMPH,WindSpeedGustMPH,Humidity,HourlyPrecipIn,Conditions,Clouds,dailyrainin,SoftwareType,DateUTC
2013-08-03 00:02:00,64.2,53.0,29.99,NW,315,0.0,0.0,67,0.00,RA,,0.00,WeatherDisplay:10.37,2013-08-03 05:02:00,
2013-08-03 00:07:00,63.8,53.0,29.99,NW,315,0.0,0.0,68,0.00,RA,,0.00,WeatherDisplay:10.37,2013-08-03 05:07:00,
2013-08-03 00:12:00,63.8,53.0,29.99,WNW,298,0.5,2.3,68,0.00,CLR,,0.00,WeatherDisplay:10.37,2013-08-03 05:12:00,
2013-08-03 00:17:00,63.7,52.9,29.99,West,278,0.0,1.2,68,0.00,CLR,,0.00,WeatherDisplay:10.37,2013-08-03 05:17:00,
2013-08-03 00:22:00,63.7,52.5,29.99,WSW,254,0.2,1.2,67,0.00,CLR,,0.00,WeatherDisplay:10.37,2013-08-03 05:22:00,
2013-08-03 00:27:00,63.7,52.5,29.99,NW,305,0.0,1.2,67,0.00,CLR,,0.00,WeatherDisplay:10.37,2013-08-03 05:27:00,
2013-08-03 00:32:00,63.5,52.3,30.00,NNW,331,2.0,3.7,67,0.00,CLR,,0.00,WeatherDisplay:10.37,2013-08-03 05:32:00,
2013-08-03 00:37:00,63.6,52.8,30.00,NW,315,1.1,3.5,68,0.00,CLR,,0.00,WeatherDisplay:10.37,2013-08-03 05:37:00,
2013-08-03 00:42:00,63.4,52.7,30.00,NW,311,1.6,3.5,68,0.00,CLR,,0.00,WeatherDisplay:10.37,2013-08-03 05:42:00,
2013-08-03 00:47:00,63.1,52.8,30.00,NW,308,2.5,3.5,69,0.00,CLR,,0.00,WeatherDisplay:10.37,2013-08-03 05:47:00,
2013-08-03 00:52:00,63.1,52.8,30.00,West,278,0.0,2.3,69,0.00,CLR,,0.00,WeatherDisplay:10.37,2013-08-03 05:52:00,
2013-08-03 00:57:00,63.0,52.7,30.00,WNW,295,2.3,4.6,69,0.00,CLR,,0.00,WeatherDisplay:10.37,2013-08-03 05:57:00,
2013-08-03 01:02:00,62.9,52.6,30.00,WNW,298,2.5,3.5,69,0.00,CLR,,0.00,WeatherDisplay:10.37,2013-08-03 06:02:00,
2013-08-03 01:07:00,62.7,52.4,30.01,WNW,300,1.3,4.6,69,0.00,CLR,,0.00,WeatherDisplay:10.37,2013-08-03 06:07:00,
2013-08-03 01:12:00,62.7,52.8,30.01,WNW,302,1.6,2.5,70,0.00,CLR,,0.00,WeatherDisplay:10.37,2013-08-03 06:12:00,
2013-08-03 01:17:00,62.4,52.5,30.00,NW,309,2.7,4.6,70,0.00,CLR,,0.00,WeatherDisplay:10.37,2013-08-03 06:17:00,
2013-08-03 01:22:00,62.3,52.4,30.01,NW,316,2.8,4.3,70,0.00,CLR,,0.00,WeatherDisplay:10.37,2013-08-03 06:22:00,
2013-08-03 01:27:00,62.5,52.6,30.01,WNW,300,2.8,4.6,70,0.00,CLR,,0.00,WeatherDisplay:10.37,2013-08-03 06:27:00,
2013-08-03 01:32:00,62.2,52.3,30.01,NW,312,2.6,4.8,70,0.00,CLR,,0.00,WeatherDisplay:10.37,2013-08-03 06:32:00,
2013-08-03 01:37:00,62.2,52.7,30.01,NW,322,1.6,3.5,71,0.00,CLR,,0.00,WeatherDisplay:10.37,2013-08-03 06:37:00,
2013-08-03 01:42:00,61.9,52.4,30.01,West,271,2.3,3.5,71,0.00,CLR,,0.00,WeatherDisplay:10.37,2013-08-03 06:42:00,
2013-08-03 01:47:00,61.9,52.8,30.01,NW,314,1.9,3.5,72,0.00,CLR,,0.00,WeatherDisplay:10.37,2013-08-03 06:47:00,
2013-08-03 01:52:00,61.7,53.0,30.01,WNW,292,0.7,3.5,73,0.00,CLR,,0.00,WeatherDisplay:10.37,2013-08-03 06:52:00,
2013-08-03 01:57:00,61.5,53.1,30.01,NNW,343,1.1,5.8,74,0.00,CLR,,0.00,WeatherDisplay:10.37,2013-08-03 06:57:00,
2013-08-03 02:02:00,61.3,52.9,30.01,NNW,342,2.4,4.6,74,0.00,CLR,,0.00,WeatherDisplay:10.37,2013-08-03 07:02:00,
2013-08-03 02:07:00,61.4,53.4,30.01,NNW,328,2.2,3.5,75,0.00,CLR,,0.00,WeatherDisplay:10.37,2013-08-03 07:07:00,
2013-08-03 02:12:00,61.2,53.2,30.01,NNW,335,1.3,2.2,75,0.00,CLR,,0.00,WeatherDisplay:10.37,2013-08-03 07:12:00,
2013-08-03 02:17:00,61.0,53.4,30.01,NE,36,0.6,1.2,76,0.00,CLR,,0.00,WeatherDisplay:10.37,2013-08-03 07:17:00,
2013-08-03 02:22:00,60.9,53.3,30.01,NNW,345,1.3,3.5,76,0.00,CLR,,0.00,WeatherDisplay:10.37,2013-08-03 07:22:00,
2013-08-03 02:27:00,60.7,53.4,30.02,NNW,331,1.8,4.6,77,0.00,CLR,,0.00,WeatherDisplay:10.37,2013-08-03 07:27:00,
2013-08-03 02:32:00,60.6,53.3,30.02,NE,37,0.5,2.3,77,0.00,CLR,,0.00,WeatherDisplay:10.37,2013-08-03 07:32:00,
2013-08-03 02:37:00,60.3,53.4,30.02,NW,321,0.1,1.7,78,0.00,CLR,,0.00,WeatherDisplay:10.37,2013-08-03 07:37:00,
2013-08-03 02:42:00,60.1,53.6,30.02,WNW,301,0.0,0.0,79,0.00,CLR,,0.00,WeatherDisplay:10.37,2013-08-03 07:42:00,
2013-08-03 02:47:00,60.0,53.5,30.03,WNW,301,0.0,0.0,79,0.00,CLR,,0.00,WeatherDisplay:10.37,2013-08-03 07:47:00,
2013-08-03 02:52:00,59.8,53.6,30.03,WNW,301,0.0,0.0,80,0.00,CLR,,0.00,WeatherDisplay:10.37,2013-08-03 07:52:00,
2013-08-03 02:57:00,59.6,53.8,30.02,WNW,301,0.0,0.0,81,0.00,CLR,,0.00,WeatherDisplay:10.37,2013-08-03 07:57:00,
2013-08-03 03:02:00,59.5,53.7,30.02,WNW,301,0.0,0.0,81,0.00,CLR,,0.00,WeatherDisplay:10.37,2013-08-03 08:02:00,
2013-08-03 03:07:00,59.3,53.8,30.03,WNW,301,0.0,0.0,82,0.00,CLR,,0.00,WeatherDisplay:10.37,2013-08-03 08:07:00,
2013-08-03 03:12:00,59.1,54.3,30.03,WNW,301,0.0,0.0,84,0.00,CLR,,0.00,WeatherDisplay:10.37,2013-08-03 08:12:00,
2013-08-03 03:17:00,58.7,54.2,30.03,WNW,301,0.0,0.0,85,0.00,CLR,,0.00,WeatherDisplay:10.37,2013-08-03 08:17:00,
2013-08-03 03:22:00,58.3,53.8,30.03,WNW,301,0.0,0.0,85,0.00,CLR,,0.00,WeatherDisplay:10.37,2013-08-03 08:22:00,
2013-08-03 03:27:00,58.1,53.9,30.03,WNW,301,0.0,0.0,86,0.00,CLR,,0.00,WeatherDisplay:10.37,2013-08-03 08:27:00,
2013-08-03 03:32:00,58.1,54.2,30.03,WNW,301,0.0,0.0,87,0.00,CLR,,0.00,WeatherDisplay:10.37,2013-08-03 08:32:00,
2013-08-03 03:37:00,57.7,54.2,30.03,WNW,301,0.0,0.0,88,0.00,CLR,,0.00,WeatherDisplay:10.37,2013-08-03 08:37:00,
2013-08-03 03:42:00,57.4,54.5,30.03,WNW,301,0.0,0.0,90,0.00,CLR,,0.00,WeatherDisplay:10.37,2013-08-03 08:42:00,
2013-08-03 03:47:00,57.0,54.1,30.03,WNW,301,0.0,0.0,90,0.00,CLR,,0.00,WeatherDisplay:10.37,2013-08-03 08:47:00,
2013-08-03 03:52:00,56.8,54.2,30.03,WNW,301,0.0,0.0,91,0.00,CLR,,0.00,WeatherDisplay:10.37,2013-08-03 08:52:00,
2013-08-03 03:57:00,56.5,54.2,30.03,WNW,301,0.0,0.0,92,0.00,CLR,,0.00,WeatherDisplay:10.37,2013-08-03 08:57:00,
2013-08-03 04:02:00,56.4,54.4,30.03,WNW,301,0.0,0.0,93,0.00,CLR,,0.00,WeatherDisplay:10.37,2013-08-03 09:02:00,
2013-08-03 04:07:00,56.3,54.6,30.03,WNW,301,0.0,0.0,94,0.00,CLR,,0.00,WeatherDisplay:10.37,2013-08-03 09:07:00,
2013-08-03 04:12:00,56.1,54.4,30.03,WNW,301,0.0,0.0,94,0.00,CLR,,0.00,WeatherDisplay:10.37,2013-08-03 09:12:00,
2013-08-03 04:17:00,55.9,54.5,30.03,WNW,301,0.0,0.0,95,0.00,CLR,,0.00,WeatherDisplay:10.37,2013-08-03 09:17:00,
2013-08-03 04:22:00,55.9,54.8,30.04,WNW,301,0.0,0.0,96,0.00,CLR,,0.00,WeatherDisplay:10.37,2013-08-03 09:22:00,
2013-08-03 04:27:00,55.9,54.8,30.04,WNW,301,0.0,0.0,96,0.00,CLR,,0.00,WeatherDisplay:10.37,2013-08-03 09:27:00,
2013-08-03 04:32:00,55.9,54.8,30.04,WNW,301,0.0,0.0,96,0.00,CLR,,0.00,WeatherDisplay:10.37,2013-08-03 09:32:00,
2013-08-03 04:37:00,56.2,55.4,30.04,WNW,301,0.0,0.0,97,0.00,CLR,,0.00,WeatherDisplay:10.37,2013-08-03 09:37:00,
2013-08-03 04:42:00,56.4,55.3,30.05,WNW,301,0.0,0.0,96,0.00,CLR,,0.00,WeatherDisplay:10.37,2013-08-03 09:42:00,
2013-08-03 04:47:00,56.8,55.7,30.04,WNW,301,0.0,0.0,96,0.00,CLR,,0.00,WeatherDisplay:10.37,2013-08-03 09:47:00,
2013-08-03 04:52:00,56.8,55.7,30.04,WNW,301,0.0,0.0,96,0.00,CLR,,0.00,WeatherDisplay:10.37,2013-08-03 09:52:00,
2013-08-03 04:57:00,56.7,55.6,30.04,WNW,301,0.0,0.0,96,0.00,CLR,,0.00,WeatherDisplay:10.37,2013-08-03 09:57:00,
2013-08-03 05:02:00,56.3,55.2,30.04,WNW,301,0.0,0.0,96,0.00,CLR,,0.00,WeatherDisplay:10.37,2013-08-03 10:02:00,
2013-08-03 05:07:00,56.0,55.2,30.04,WNW,301,0.0,0.0,97,0.00,CLR,,0.00,WeatherDisplay:10.37,2013-08-03 10:07:00,
2013-08-03 05:12:00,55.8,55.2,30.04,WNW,301,0.0,0.0,98,0.00,CLR,,0.00,WeatherDisplay:10.37,2013-08-03 10:12:00,
2013-08-03 05:17:00,55.7,55.1,30.04,WNW,301,0.0,0.0,98,0.00,CLR,,0.00,WeatherDisplay:10.37,2013-08-03 10:17:00,
2013-08-03 05:22:00,55.8,55.5,30.04,WNW,301,0.0,0.0,99,0.00,CLR,,0.00,WeatherDisplay:10.37,2013-08-03 10:22:00,
2013-08-03 05:27:00,55.8,55.2,30.05,WNW,301,0.0,0.0,98,0.00,CLR,,0.00,WeatherDisplay:10.37,2013-08-03 10:27:00,
2013-08-03 05:32:00,55.7,55.4,30.05,WNW,301,0.0,0.0,99,0.00,CLR,,0.00,WeatherDisplay:10.37,2013-08-03 10:32:00,
2013-08-03 05:37:00,55.5,55.2,30.05,WNW,301,0.0,0.0,99,0.00,CLR,,0.00,WeatherDisplay:10.37,2013-08-03 10:37:00,
2013-08-03 05:42:00,55.4,55.1,30.05,WNW,301,0.0,0.0,99,0.00,CLR,,0.00,WeatherDisplay:10.37,2013-08-03 10:42:00,
2013-08-03 05:47:00,55.2,55.2,30.05,WNW,301,0.0,0.0,100,0.00,CLR,,0.00,WeatherDisplay:10.37,2013-08-03 10:47:00,
2013-08-03 05:52:00,55.1,55.1,30.05,WNW,301,0.0,0.0,100,0.00,CLR,,0.00,WeatherDisplay:10.37,2013-08-03 10:52:00,
2013-08-03 05:57:00,55.0,55.0,30.05,WNW,301,0.0,0.0,100,0.00,CLR,,0.00,WeatherDisplay:10.37,2013-08-03 10:57:00,
2013-08-03 06:02:00,54.9,54.9,30.05,WNW,301,0.0,0.0,100,0.00,CLR,,0.00,WeatherDisplay:10.37,2013-08-03 11:02:00,
2013-08-03 06:07:00,54.8,54.8,30.05,WNW,301,0.0,0.0,100,0.00,CLR,,0.00,WeatherDisplay:10.37,2013-08-03 11:07:00,
2013-08-03 06:12:00,55.0,55.0,30.05,WNW,301,0.0,0.0,100,0.00,CLR,,0.00,WeatherDisplay:10.37,2013-08-03 11:12:00,
2013-08-03 06:17:00,55.3,55.3,30.05,WNW,301,0.0,0.0,100,0.00,CLR,,0.00,WeatherDisplay:10.37,2013-08-03 11:17:00,
2013-08-03 06:22:00,55.4,55.4,30.05,WNW,301,0.0,0.0,100,0.00,CLR,,0.00,WeatherDisplay:10.37,2013-08-03 11:22:00,
2013-08-03 06:27:00,55.7,55.7,30.05,WNW,301,0.0,0.0,100,0.00,CLR,,0.00,WeatherDisplay:10.37,2013-08-03 11:27:00,
2013-08-03 06:32:00,56.0,56.0,30.06,WNW,301,0.0,0.0,100,0.00,CLR,,0.00,WeatherDisplay:10.37,2013-08-03 11:32:00,
2013-08-03 06:37:00,56.5,56.5,30.06,WNW,301,0.0,0.0,100,0.00,CLR,,0.00,WeatherDisplay:10.37,2013-08-03 11:37:00,
2013-08-03 06:42:00,56.8,56.8,30.06,WNW,301,0.0,0.0,100,0.00,CLR,,0.00,WeatherDisplay:10.37,2013-08-03 11:42:00,
2013-08-03 06:47:00,57.3,57.3,30.06,WNW,301,0.0,0.0,100,0.00,CLR,,0.00,WeatherDisplay:10.37,2013-08-03 11:47:00,
2013-08-03 06:52:00,57.8,57.8,30.06,WNW,301,0.0,0.0,100,0.00,CLR,,0.00,WeatherDisplay:10.37,2013-08-03 11:52:00,
2013-08-03 06:57:00,58.3,58.3,30.06,WNW,301,0.0,0.0,100,0.00,CLR,,0.00,WeatherDisplay:10.37,2013-08-03 11:57:00,
2013-08-03 07:02:00,58.8,58.8,30.07,WNW,301,0.0,0.0,100,0.00,CLR,,0.00,WeatherDisplay:10.37,2013-08-03 12:02:00,
2013-08-03 07:07:00,59.1,58.8,30.06,WNW,301,0.0,0.0,99,0.00,CLR,,0.00,WeatherDisplay:10.37,2013-08-03 12:07:00,
2013-08-03 07:12:00,59.7,59.1,30.06,WNW,301,0.0,0.0,98,0.00,CLR,,0.00,WeatherDisplay:10.37,2013-08-03 12:12:00,
2013-08-03 07:17:00,60.7,59.6,30.06,WNW,301,0.0,0.0,96,0.00,CLR,,0.00,WeatherDisplay:10.37,2013-08-03 12:17:00,
2013-08-03 07:22:00,61.3,59.3,30.07,WNW,301,0.0,0.0,93,0.00,CLR,,0.00,WeatherDisplay:10.37,2013-08-03 12:22:00,
2013-08-03 07:27:00,61.9,59.2,30.07,WNW,301,0.0,0.0,91,0.00,CLR,,0.00,WeatherDisplay:10.37,2013-08-03 12:27:00,
2013-08-03 07:32:00,62.4,58.8,30.07,WNW,301,0.0,0.0,88,0.00,CLR,,0.00,WeatherDisplay:10.37,2013-08-03 12:32:00,
2013-08-03 07:37:00,62.9,58.3,30.08,North,350,0.0,0.0,85,0.00,CLR,,0.00,WeatherDisplay:10.37,2013-08-03 12:37:00,
2013-08-03 07:42:00,63.2,58.3,30.08,North,350,0.0,0.0,84,0.00,CLR,,0.00,WeatherDisplay:10.37,2013-08-03 12:42:00,
2013-08-03 07:47:00,63.7,57.8,30.08,North,350,0.0,0.0,81,0.00,CLR,,0.00,WeatherDisplay:10.37,2013-08-03 12:47:00,
2013-08-03 07:52:00,64.1,57.8,30.08,North,350,0.0,0.0,80,0.00,CLR,,0.00,WeatherDisplay:10.37,2013-08-03 12:52:00,
2013-08-03 07:57:00,64.3,58.0,30.07,North,350,0.0,0.0,80,0.00,CLR,,0.00,WeatherDisplay:10.37,2013-08-03 12:57:00,
2013-08-03 08:02:00,64.7,58.4,30.08,North,357,0.0,0.0,80,0.00,CLR,,0.00,WeatherDisplay:10.37,2013-08-03 13:02:00,
2013-08-03 08:07:00,65.3,59.3,30.08,North,357,0.0,0.0,81,0.00,CLR,,0.00,WeatherDisplay:10.37,2013-08-03 13:07:00,
2013-08-03 08:12:00,65.7,58.3,30.08,NNW,340,0.0,0.0,77,0.00,CLR,,0.00,WeatherDisplay:10.37,2013-08-03 13:12:00,
2013-08-03 08:17:00,65.8,58.4,30.09,WNW,287,1.4,2.3,77,0.00,CLR,,0.00,WeatherDisplay:10.37,2013-08-03 13:17:00,
2013-08-03 08:22:00,65.6,57.8,30.09,West,268,0.0,0.0,76,0.00,CLR,,0.00,WeatherDisplay:10.37,2013-08-03 13:22:00,
2013-08-03 08:27:00,66.0,58.2,30.09,North,350,0.0,0.0,76,0.00,CLR,,0.00,WeatherDisplay:10.37,2013-08-03 13:27:00,
2013-08-03 08:32:00,66.4,56.3,30.09,WNW,288,1.4,3.5,70,0.00,CLR,,0.00,WeatherDisplay:10.37,2013-08-03 13:32:00,
2013-08-03 08:37:00,66.9,56.4,30.09,WNW,298,0.1,2.3,69,0.00,CLR,,0.00,WeatherDisplay:10.37,2013-08-03 13:37:00,
2013-08-03 08:42:00,67.5,56.6,30.09,ESE,120,0.1,0.6,68,0.00,CLR,,0.00,WeatherDisplay:10.37,2013-08-03 13:42:00,
2013-08-03 08:47:00,68.5,57.1,30.09,NNW,335,0.5,1.2,67,0.00,CLR,,0.00,WeatherDisplay:10.37,2013-08-03 13:47:00,
2013-08-03 08:52:00,69.3,54.8,30.09,NE,51,0.5,2.3,60,0.00,CLR,,0.00,WeatherDisplay:10.37,2013-08-03 13:52:00,
2013-08-03 08:57:00,70.1,55.6,30.09,West,271,0.8,1.3,60,0.00,CLR,,0.00,WeatherDisplay:10.37,2013-08-03 13:57:00,
2013-08-03 09:02:00,70.3,53.4,30.09,East,81,0.3,1.2,55,0.00,CLR,,0.00,WeatherDisplay:10.37,2013-08-03 14:02:00,
2013-08-03 09:07:00,70.6,55.1,30.09,NNE,16,2.2,3.5,58,0.00,CLR,,0.00,WeatherDisplay:10.37,2013-08-03 14:07:00,
2013-08-03 09:12:00,70.8,56.2,30.09,NE,54,0.0,2.3,60,0.00,CLR,,0.00,WeatherDisplay:10.37,2013-08-03 14:12:00,
2013-08-03 09:17:00,70.7,55.2,30.09,NNE,14,3.0,4.6,58,0.00,CLR,,0.00,WeatherDisplay:10.37,2013-08-03 14:17:00,
2013-08-03 09:22:00,70.5,54.5,30.09,NNE,20,0.0,1.2,57,0.00,CLR,,0.00,WeatherDisplay:10.37,2013-08-03 14:22:00,
2013-08-03 09:27:00,70.6,54.1,30.10,NNE,20,0.0,0.0,56,0.00,CLR,,0.00,WeatherDisplay:10.37,2013-08-03 14:27:00,
2013-08-03 09:33:00,70.9,53.9,30.10,NNE,20,0.0,0.0,55,0.00,CLR,,0.00,WeatherDisplay:10.37,2013-08-03 14:33:00,
2013-08-03 09:37:00,70.7,54.2,30.09,West,274,1.7,4.6,56,0.00,CLR,,0.00,WeatherDisplay:10.37,2013-08-03 14:37:00,
2013-08-03 09:43:00,70.8,54.3,30.09,WSW,256,0.6,3.5,56,0.00,CLR,,0.00,WeatherDisplay:10.37,2013-08-03 14:43:00,
2013-08-03 09:47:00,71.3,54.8,30.09,NNW,345,1.6,4.0,56,0.00,CLR,,0.00,WeatherDisplay:10.37,2013-08-03 14:47:00,
2013-08-03 09:53:00,72.2,53.1,30.09,ESE,122,0.1,2.3,51,0.00,CLR,,0.00,WeatherDisplay:10.37,2013-08-03 14:53:00,
2013-08-03 09:57:00,73.1,52.8,30.09,East,88,0.7,3.7,49,0.00,CLR,,0.00,WeatherDisplay:10.37,2013-08-03 14:57:00,
2013-08-03 10:02:00,73.1,51.7,30.09,NNE,20,0.2,4.6,47,0.00,FEW,,0.00,WeatherDisplay:10.37,2013-08-03 15:02:00,
2013-08-03 10:07:00,72.9,51.5,30.10,North,355,0.0,0.0,47,0.00,FEW,,0.00,WeatherDisplay:10.37,2013-08-03 15:07:00,
2013-08-03 10:13:00,72.7,50.7,30.10,WNW,297,3.0,3.5,46,0.00,FEW,,0.00,WeatherDisplay:10.37,2013-08-03 15:13:00,
2013-08-03 10:18:00,72.9,52.1,30.10,SE,137,2.3,4.6,48,0.00,FEW,,0.00,WeatherDisplay:10.37,2013-08-03 15:18:00,
2013-08-03 10:23:00,73.3,51.3,30.10,West,274,1.7,4.6,46,0.00,FEW,,0.00,WeatherDisplay:10.37,2013-08-03 15:23:00,
2013-08-03 10:28:00,73.4,51.4,30.10,East,100,0.7,2.7,46,0.00,FEW,,0.00,WeatherDisplay:10.37,2013-08-03 15:28:00,
2013-08-03 10:33:00,73.7,49.2,30.11,NE,54,4.0,4.6,42,0.00,FEW,,0.00,WeatherDisplay:10.37,2013-08-03 15:33:00,
2013-08-03 10:37:00,74.1,50.8,30.11,ESE,117,0.0,0.0,44,0.00,FEW,,0.00,WeatherDisplay:10.37,2013-08-03 15:37:00,
2013-08-03 10:43:00,74.5,49.9,30.11,West,259,1.3,3.5,42,0.00,FEW,,0.00,WeatherDisplay:10.37,2013-08-03 15:43:00,
2013-08-03 10:48:00,74.5,49.9,30.11,NW,325,1.9,3.5,42,0.00,FEW,,0.00,WeatherDisplay:10.37,2013-08-03 15:48:00,
2013-08-03 10:53:00,74.2,49.0,30.11,West,281,1.5,3.5,41,0.00,FEW,,0.00,WeatherDisplay:10.37,2013-08-03 15:53:00,
2013-08-03 10:57:00,74.5,49.9,30.11,NNW,329,4.0,5.8,42,0.00,FEW,,0.00,WeatherDisplay:10.37,2013-08-03 15:57:00,
2013-08-03 11:02:00,74.6,50.6,30.11,West,267,1.2,3.5,43,0.00,FEW,,0.00,WeatherDisplay:10.37,2013-08-03 16:02:00,
2013-08-03 11:08:00,75.1,52.3,30.11,SW,215,3.3,5.8,45,0.00,FEW,,0.00,WeatherDisplay:10.37,2013-08-03 16:08:00,
2013-08-03 11:13:00,73.6,50.3,30.11,WSW,257,4.1,6.9,44,0.00,FEW,,0.00,WeatherDisplay:10.37,2013-08-03 16:13:00,
2013-08-03 11:18:00,73.9,50.6,30.11,WSW,256,2.2,4.6,44,0.00,FEW,,0.00,WeatherDisplay:10.37,2013-08-03 16:18:00,
2013-08-03 11:23:00,73.9,51.8,30.11,WSW,237,2.4,6.9,46,0.00,FEW,,0.00,WeatherDisplay:10.37,2013-08-03 16:23:00,
2013-08-03 11:28:00,73.2,50.6,30.11,West,271,1.0,2.3,45,0.00,FEW,,0.00,WeatherDisplay:10.37,2013-08-03 16:28:00,
2013-08-03 11:33:00,73.0,50.4,30.11,West,281,2.9,8.1,45,0.00,FEW,,0.00,WeatherDisplay:10.37,2013-08-03 16:33:00,
2013-08-03 11:38:00,73.1,51.1,30.12,NNE,20,4.3,8.1,46,0.00,FEW,,0.00,WeatherDisplay:10.37,2013-08-03 16:38:00,
2013-08-03 11:42:00,73.0,51.6,30.12,West,278,1.7,2.7,47,0.00,FEW,,0.00,WeatherDisplay:10.37,2013-08-03 16:42:00,
2013-08-03 11:48:00,73.3,51.3,30.12,WSW,249,0.3,1.2,46,0.00,FEW,,0.00,WeatherDisplay:10.37,2013-08-03 16:48:00,
2013-08-03 11:53:00,74.2,50.3,30.12,West,281,3.2,5.8,43,0.00,FEW,,0.00,WeatherDisplay:10.37,2013-08-03 16:53:00,
2013-08-03 11:58:00,74.9,50.9,30.12,NW,316,1.4,3.5,43,0.00,FEW,,0.00,WeatherDisplay:10.37,2013-08-03 16:58:00,
2013-08-03 12:03:00,74.5,49.2,30.12,SSE,163,3.5,6.9,41,0.00,BKN,,0.00,WeatherDisplay:10.37,2013-08-03 17:03:00,
2013-08-03 12:08:00,74.7,50.7,30.12,SW,215,1.8,6.9,43,0.00,BKN,,0.00,WeatherDisplay:10.37,2013-08-03 17:08:00,
2013-08-03 12:13:00,74.5,50.5,30.11,WSW,243,3.5,6.9,43,0.00,BKN,,0.00,WeatherDisplay:10.37,2013-08-03 17:13:00,
2013-08-03 12:18:00,74.5,50.5,30.11,North,4,0.6,1.6,43,0.00,BKN,,0.00,WeatherDisplay:10.37,2013-08-03 17:18:00,
2013-08-03 12:23:00,73.9,50.6,30.11,WNW,301,2.8,5.8,44,0.00,BKN,,0.00,WeatherDisplay:10.37,2013-08-03 17:23:00,
2013-08-03 12:28:00,73.4,50.8,30.11,NW,312,3.2,5.8,45,0.00,BKN,,0.00,WeatherDisplay:10.37,2013-08-03 17:28:00,
2013-08-03 12:33:00,73.6,52.7,30.11,North,4,1.2,2.3,48,0.00,BKN,,0.00,WeatherDisplay:10.37,2013-08-03 17:33:00,
2013-08-03 12:38:00,74.2,50.9,30.11,NNW,338,1.8,5.8,44,0.00,BKN,,0.00,WeatherDisplay:10.37,2013-08-03 17:38:00,
2013-08-03 12:43:00,75.2,51.8,30.11,NNW,342,6.3,10.4,44,0.00,BKN,,0.00,WeatherDisplay:10.37,2013-08-03 17:43:00,
2013-08-03 12:47:00,75.6,50.9,30.11,NW,325,2.8,5.8,42,0.00,BKN,,0.00,WeatherDisplay:10.37,2013-08-03 17:47:00,
2013-08-03 12:52:00,75.9,51.8,30.11,NNW,329,3.8,8.6,43,0.00,BKN,,0.00,WeatherDisplay:10.37,2013-08-03 17:52:00,
2013-08-03 12:58:00,75.6,52.1,30.11,SSE,164,2.6,4.6,44,0.00,BKN,,0.00,WeatherDisplay:10.37,2013-08-03 17:58:00,
2013-08-03 13:02:00,75.2,53.0,30.11,North,360,1.0,4.4,46,0.00,BKN,,0.00,WeatherDisplay:10.37,2013-08-03 18:02:00,
2013-08-03 13:08:00,76.0,53.7,30.12,NW,319,4.2,7.5,46,0.00,BKN,,0.00,WeatherDisplay:10.37,2013-08-03 18:08:00,
2013-08-03 13:13:00,74.7,51.3,30.11,NNW,328,5.2,8.1,44,0.00,BKN,,0.00,WeatherDisplay:10.37,2013-08-03 18:13:00,
2013-08-03 13:18:00,74.0,52.5,30.12,West,261,3.1,5.8,47,0.00,BKN,,0.00,WeatherDisplay:10.37,2013-08-03 18:18:00,
2013-08-03 13:22:00,74.6,53.6,30.11,WSW,242,3.4,5.8,48,0.00,BKN,,0.00,WeatherDisplay:10.37,2013-08-03 18:22:00,
2013-08-03 13:28:00,74.6,52.4,30.12,WNW,290,6.9,11.5,46,0.00,BKN,,0.00,WeatherDisplay:10.37,2013-08-03 18:28:00,
2013-08-03 13:33:00,74.8,52.6,30.12,South,182,1.1,5.8,46,0.00,BKN,,0.00,WeatherDisplay:10.37,2013-08-03 18:33:00,
2013-08-03 13:38:00,75.3,52.5,30.12,NW,324,2.7,5.8,45,0.00,BKN,,0.00,WeatherDisplay:10.37,2013-08-03 18:38:00,
2013-08-03 13:42:00,74.7,53.1,30.12,NNW,338,3.4,5.8,47,0.00,BKN,,0.00,WeatherDisplay:10.37,2013-08-03 18:42:00,
2013-08-03 13:48:00,74.8,53.8,30.12,WNW,285,5.1,8.1,48,0.00,BKN,,0.00,WeatherDisplay:10.37,2013-08-03 18:48:00,
2013-08-03 13:53:00,75.4,53.8,30.12,East,88,1.1,2.7,47,0.00,BKN,,0.00,WeatherDisplay:10.37,2013-08-03 18:53:00,
2013-08-03 13:58:00,76.2,53.3,30.12,WNW,302,2.7,4.6,45,0.00,BKN,,0.00,WeatherDisplay:10.37,2013-08-03 18:58:00,
2013-08-03 14:03:00,75.7,52.8,30.12,NNW,342,3.6,9.2,45,0.00,BKN,,0.00,WeatherDisplay:10.37,2013-08-03 19:03:00,
2013-08-03 14:07:00,76.0,53.1,30.12,NW,319,5.0,6.9,45,0.00,BKN,,0.00,WeatherDisplay:10.37,2013-08-03 19:07:00,
2013-08-03 14:13:00,76.0,53.1,30.12,WNW,290,3.2,5.8,45,0.00,BKN,,0.00,WeatherDisplay:10.37,2013-08-03 19:13:00,
2013-08-03 14:18:00,75.4,52.6,30.12,NNE,20,5.4,8.1,45,0.00,BKN,,0.00,WeatherDisplay:10.37,2013-08-03 19:18:00,
2013-08-03 14:22:00,74.3,53.3,30.12,WSW,249,3.5,8.1,48,0.00,BKN,,0.00,WeatherDisplay:10.37,2013-08-03 19:22:00,
2013-08-03 14:28:00,73.8,53.4,30.12,NW,305,5.4,8.1,49,0.00,BKN,,0.00,WeatherDisplay:10.37,2013-08-03 19:28:00,
2013-08-03 14:32:00,73.5,54.3,30.12,NNW,328,2.9,5.8,51,0.00,BKN,,0.00,WeatherDisplay:10.37,2013-08-03 19:32:00,
2013-08-03 14:38:00,73.3,54.1,30.12,WSW,249,2.1,4.6,51,0.00,BKN,,0.00,WeatherDisplay:10.37,2013-08-03 19:38:00,
2013-08-03 14:43:00,73.2,54.5,30.12,SSW,205,1.1,3.5,52,0.00,BKN,,0.00,WeatherDisplay:10.37,2013-08-03 19:43:00,
2013-08-03 14:48:00,73.7,55.5,30.12,WSW,250,0.4,2.3,53,0.00,BKN,,0.00,WeatherDisplay:10.37,2013-08-03 19:48:00,
2013-08-03 14:53:00,73.8,54.0,30.11,SSW,199,4.0,5.8,50,0.00,BKN,,0.00,WeatherDisplay:10.37,2013-08-03 19:53:00,
2013-08-03 14:58:00,74.4,53.4,30.11,North,2,4.1,6.9,48,0.00,BKN,,0.00,WeatherDisplay:10.37,2013-08-03 19:58:00,
2013-08-03 15:03:00,74.9,53.9,30.11,NNW,335,1.2,3.5,48,0.00,BKN,,0.00,WeatherDisplay:10.37,2013-08-03 20:03:00,
2013-08-03 15:08:00,75.4,54.3,30.11,NNW,333,1.7,4.9,48,0.00,BKN,,0.00,WeatherDisplay:10.37,2013-08-03 20:08:00,
2013-08-03 15:13:00,75.3,53.1,30.11,NW,322,2.4,5.8,46,0.00,BKN,,0.00,WeatherDisplay:10.37,2013-08-03 20:13:00,
2013-08-03 15:18:00,75.5,53.3,30.11,North,349,3.2,6.6,46,0.00,BKN,,0.00,WeatherDisplay:10.37,2013-08-03 20:18:00,
2013-08-03 15:23:00,75.8,51.7,30.11,NNW,348,6.0,8.1,43,0.00,BKN,,0.00,WeatherDisplay:10.37,2013-08-03 20:23:00,
2013-08-03 15:28:00,75.4,50.7,30.11,NW,321,3.2,5.8,42,0.00,BKN,,0.00,WeatherDisplay:10.37,2013-08-03 20:28:00,
2013-08-03 15:33:00,74.7,50.7,30.11,NNW,332,6.0,8.1,43,0.00,BKN,,0.00,WeatherDisplay:10.37,2013-08-03 20:33:00,
2013-08-03 15:38:00,75.1,52.3,30.11,NNW,342,3.1,6.9,45,0.00,BKN,,0.00,WeatherDisplay:10.37,2013-08-03 20:38:00,
2013-08-03 15:43:00,75.8,52.9,30.10,North,352,2.9,8.3,45,0.00,BKN,,0.00,WeatherDisplay:10.37,2013-08-03 20:43:00,
2013-08-03 15:48:00,75.9,52.4,30.10,NNW,336,4.2,10.3,44,0.00,BKN,,0.00,WeatherDisplay:10.37,2013-08-03 20:48:00,
2013-08-03 15:53:00,75.8,51.7,30.10,NW,321,3.5,7.4,43,0.00,BKN,,0.00,WeatherDisplay:10.37,2013-08-03 20:53:00,
2013-08-03 15:58:00,75.6,52.1,30.11,NNW,336,2.3,6.9,44,0.00,BKN,,0.00,WeatherDisplay:10.37,2013-08-03 20:58:00,
2013-08-03 16:03:00,75.7,51.6,30.10,North,355,1.9,3.5,43,0.00,FEW,,0.00,WeatherDisplay:10.37,2013-08-03 21:03:00,
2013-08-03 16:08:00,75.8,51.1,30.10,North,350,4.7,10.4,42,0.00,FEW,,0.00,WeatherDisplay:10.37,2013-08-03 21:08:00,
2013-08-03 16:13:00,76.1,51.3,30.10,NE,41,1.9,3.5,42,0.00,FEW,,0.00,WeatherDisplay:10.37,2013-08-03 21:13:00,
2013-08-03 16:18:00,75.9,49.8,30.10,NNW,338,2.2,5.8,40,0.00,FEW,,0.00,WeatherDisplay:10.37,2013-08-03 21:18:00,
2013-08-03 16:23:00,76.1,50.0,30.10,NE,41,3.0,5.8,40,0.00,FEW,,0.00,WeatherDisplay:10.37,2013-08-03 21:23:00,
2013-08-03 16:28:00,75.7,51.0,30.10,NNE,20,3.2,5.8,42,0.00,FEW,,0.00,WeatherDisplay:10.37,2013-08-03 21:28:00,
2013-08-03 16:33:00,75.6,51.5,30.10,North,350,2.0,4.6,43,0.00,FEW,,0.00,WeatherDisplay:10.37,2013-08-03 21:33:00,
2013-08-03 16:38:00,76.1,50.7,30.10,NNW,340,4.5,8.1,41,0.00,FEW,,0.00,WeatherDisplay:10.37,2013-08-03 21:38:00,
2013-08-03 16:43:00,76.5,49.7,30.10,WNW,287,5.7,11.6,39,0.00,FEW,,0.00,WeatherDisplay:10.37,2013-08-03 21:43:00,
2013-08-03 16:48:00,75.9,48.5,30.10,WNW,301,6.3,10.4,38,0.00,FEW,,0.00,WeatherDisplay:10.37,2013-08-03 21:48:00,
2013-08-03 16:53:00,75.0,49.7,30.10,WNW,291,4.9,6.9,41,0.00,FEW,,0.00,WeatherDisplay:10.37,2013-08-03 21:53:00,
2013-08-03 16:58:00,74.9,48.9,30.10,NNW,331,5.0,6.9,40,0.00,FEW,,0.00,WeatherDisplay:10.37,2013-08-03 21:58:00,
2013-08-03 17:03:00,75.8,49.8,30.10,SW,223,2.9,6.8,40,0.00,FEW,,0.00,WeatherDisplay:10.37,2013-08-03 22:03:00,
2013-08-03 17:08:00,76.0,47.8,30.10,NW,324,6.0,8.1,37,0.00,FEW,,0.00,WeatherDisplay:10.37,2013-08-03 22:08:00,
2013-08-03 17:13:00,75.4,46.6,30.10,West,280,6.0,8.1,36,0.00,FEW,,0.00,WeatherDisplay:10.37,2013-08-03 22:13:00,
2013-08-03 17:18:00,75.5,48.1,30.10,NW,311,5.2,8.5,38,0.00,FEW,,0.00,WeatherDisplay:10.37,2013-08-03 22:18:00,
2013-08-03 17:23:00,75.7,49.0,30.10,WNW,295,4.1,6.9,39,0.00,FEW,,0.00,WeatherDisplay:10.37,2013-08-03 22:23:00,
2013-08-03 17:28:00,75.9,49.2,30.10,NW,309,3.7,9.2,39,0.00,FEW,,0.00,WeatherDisplay:10.37,2013-08-03 22:28:00,
2013-08-03 17:33:00,76.3,49.5,30.10,NNW,328,3.2,4.6,39,0.00,FEW,,0.00,WeatherDisplay:10.37,2013-08-03 22:33:00,
2013-08-03 17:38:00,76.2,48.0,30.10,NNW,339,3.4,6.9,37,0.00,FEW,,0.00,WeatherDisplay:10.37,2013-08-03 22:38:00,
2013-08-03 17:43:00,75.8,46.9,30.10,NW,312,5.6,9.2,36,0.00,FEW,,0.00,WeatherDisplay:10.37,2013-08-03 22:43:00,
2013-08-03 17:48:00,76.0,47.8,30.10,NW,316,4.6,6.4,37,0.00,FEW,,0.00,WeatherDisplay:10.37,2013-08-03 22:48:00,
2013-08-03 17:53:00,75.5,47.4,30.10,West,263,4.2,8.1,37,0.00,FEW,,0.00,WeatherDisplay:10.37,2013-08-03 22:53:00,
2013-08-03 17:58:00,75.2,47.1,30.10,NNW,331,5.1,8.1,37,0.00,FEW,,0.00,WeatherDisplay:10.37,2013-08-03 22:58:00,
2013-08-03 18:03:00,74.8,47.5,30.10,WNW,301,4.8,9.5,38,0.00,SCT,,0.00,WeatherDisplay:10.37,2013-08-03 23:03:00,
2013-08-03 18:08:00,74.8,48.2,30.10,NW,304,4.7,9.2,39,0.00,SCT,,0.00,WeatherDisplay:10.37,2013-08-03 23:08:00,
2013-08-03 18:13:00,75.0,48.4,30.10,NNW,335,3.8,6.9,39,0.00,SCT,,0.00,WeatherDisplay:10.37,2013-08-03 23:13:00,
2013-08-03 18:18:00,75.0,48.4,30.10,WNW,295,2.6,6.9,39,0.00,SCT,,0.00,WeatherDisplay:10.37,2013-08-03 23:18:00,
2013-08-03 18:23:00,75.0,49.0,30.10,West,267,1.7,5.8,40,0.00,SCT,,0.00,WeatherDisplay:10.37,2013-08-03 23:23:00,
2013-08-03 18:28:00,75.2,49.2,30.10,West,259,1.1,3.5,40,0.00,SCT,,0.00,WeatherDisplay:10.37,2013-08-03 23:28:00,
2013-08-03 18:33:00,75.0,47.7,30.11,North,352,5.1,6.9,38,0.00,SCT,,0.00,WeatherDisplay:10.37,2013-08-03 23:33:00,
2013-08-03 18:39:00,75.0,48.4,30.11,WNW,302,2.3,4.6,39,0.00,SCT,,0.00,WeatherDisplay:10.37,2013-08-03 23:39:00,
2013-08-03 18:44:00,74.7,48.1,30.11,NNW,342,3.3,5.8,39,0.00,SCT,,0.00,WeatherDisplay:10.37,2013-08-03 23:44:00,
2013-08-03 18:49:00,74.6,48.7,30.11,North,357,1.9,4.6,40,0.00,SCT,,0.00,WeatherDisplay:10.37,2013-08-03 23:49:00,
2013-08-03 18:54:00,74.4,49.2,30.11,WNW,288,0.8,4.1,41,0.00,SCT,,0.00,WeatherDisplay:10.37,2013-08-03 23:54:00,
2013-08-03 18:59:00,74.0,48.1,30.11,West,264,4.2,6.9,40,0.00,SCT,,0.00,WeatherDisplay:10.37,2013-08-03 23:59:00,
2013-08-03 19:04:00,74.2,49.6,30.11,WSW,256,0.5,4.6,42,0.00,FEW,,0.00,WeatherDisplay:10.37,2013-08-04 00:04:00,
2013-08-03 19:08:00,74.3,49.7,30.11,West,259,0.0,0.0,42,0.00,FEW,,0.00,WeatherDisplay:10.37,2013-08-04 00:08:00,
2013-08-03 19:13:00,74.0,49.4,30.11,North,350,0.0,2.3,42,0.00,FEW,,0.00,WeatherDisplay:10.37,2013-08-04 00:13:00,
2013-08-03 19:19:00,73.7,49.8,30.11,NNW,336,2.1,3.5,43,0.00,FEW,,0.00,WeatherDisplay:10.37,2013-08-04 00:19:00,
2013-08-03 19:24:00,73.4,49.5,30.11,West,273,2.4,2.4,43,0.00,FEW,,0.00,WeatherDisplay:10.37,2013-08-04 00:24:00,
2013-08-03 19:28:00,73.2,50.0,30.11,WSW,240,0.0,0.0,44,0.00,FEW,,0.00,WeatherDisplay:10.37,2013-08-04 00:28:00,
2013-08-03 19:34:00,73.1,49.9,30.11,North,4,0.0,0.0,44,0.00,FEW,,0.00,WeatherDisplay:10.37,2013-08-04 00:34:00,
2013-08-03 19:38:00,72.7,50.1,30.11,North,350,0.2,1.2,45,0.00,FEW,,0.00,WeatherDisplay:10.37,2013-08-04 00:38:00,
2013-08-03 19:44:00,72.4,50.4,30.11,NNW,338,0.0,0.0,46,0.00,FEW,,0.00,WeatherDisplay:10.37,2013-08-04 00:44:00,
2013-08-03 19:49:00,71.8,50.5,30.11,NW,309,0.3,0.5,47,0.00,FEW,,0.00,WeatherDisplay:10.37,2013-08-04 00:49:00,
2013-08-03 19:54:00,71.2,50.5,30.11,NNE,27,0.0,0.0,48,0.00,FEW,,0.00,WeatherDisplay:10.37,2013-08-04 00:54:00,
2013-08-03 19:58:00,70.3,50.2,30.11,NW,325,1.0,2.5,49,0.00,FEW,,0.00,WeatherDisplay:10.37,2013-08-04 00:58:00,
2013-08-03 20:03:00,69.7,50.2,30.11,NNW,345,0.0,0.0,50,0.00,FEW,,0.00,WeatherDisplay:10.37,2013-08-04 01:03:00,
2013-08-03 20:09:00,69.2,50.8,30.11,NNW,345,0.0,0.0,52,0.00,FEW,,0.00,WeatherDisplay:10.37,2013-08-04 01:09:00,
2013-08-03 20:14:00,68.7,50.9,30.12,NNW,345,0.0,0.0,53,0.00,FEW,,0.00,WeatherDisplay:10.37,2013-08-04 01:14:00,
2013-08-03 20:19:00,68.3,51.0,30.12,NNW,331,0.6,0.0,54,0.00,FEW,,0.00,WeatherDisplay:10.37,2013-08-04 01:19:00,
2013-08-03 20:24:00,68.0,51.7,30.11,NNW,331,0.0,0.0,56,0.00,FEW,,0.00,WeatherDisplay:10.37,2013-08-04 01:24:00,
2013-08-03 20:28:00,67.3,51.1,30.12,NNW,331,0.0,0.0,56,0.00,FEW,,0.00,WeatherDisplay:10.37,2013-08-04 01:28:00,
2013-08-03 20:34:00,67.1,51.4,30.12,NNW,331,0.0,0.0,57,0.00,FEW,,0.00,WeatherDisplay:10.37,2013-08-04 01:34:00,
2013-08-03 20:39:00,66.7,51.0,30.11,NNW,331,0.0,0.0,57,0.00,FEW,,0.00,WeatherDisplay:10.37,2013-08-04 01:39:00,
2013-08-03 20:43:00,66.4,51.2,30.12,NNW,331,0.0,0.0,58,0.00,FEW,,0.00,WeatherDisplay:10.37,2013-08-04 01:43:00,
2013-08-03 20:48:00,66.2,51.0,30.12,NNW,331,0.0,0.0,58,0.00,FEW,,0.00,WeatherDisplay:10.37,2013-08-04 01:48:00,
2013-08-03 20:54:00,65.9,51.2,30.12,NNW,331,0.0,0.0,59,0.00,FEW,,0.00,WeatherDisplay:10.37,2013-08-04 01:54:00,
2013-08-03 20:59:00,65.6,51.3,30.12,NNW,331,0.0,0.0,60,0.00,FEW,,0.00,WeatherDisplay:10.37,2013-08-04 01:59:00,
2013-08-03 21:03:00,65.0,51.2,30.12,NNW,331,0.0,0.0,61,0.00,SCT,,0.00,WeatherDisplay:10.37,2013-08-04 02:03:00,
2013-08-03 21:09:00,64.7,50.9,30.13,NNW,331,0.0,0.0,61,0.00,SCT,,0.00,WeatherDisplay:10.37,2013-08-04 02:09:00,
2013-08-03 21:14:00,64.4,51.1,30.13,NNW,331,0.0,0.0,62,0.00,SCT,,0.00,WeatherDisplay:10.37,2013-08-04 02:14:00,
2013-08-03 21:19:00,64.2,50.9,30.13,NNW,331,0.0,0.0,62,0.00,SCT,,0.00,WeatherDisplay:10.37,2013-08-04 02:19:00,
2013-08-03 21:24:00,63.9,51.1,30.14,NNW,331,0.0,0.0,63,0.00,SCT,,0.00,WeatherDisplay:10.37,2013-08-04 02:24:00,
2013-08-03 21:29:00,63.7,50.9,30.14,NNW,331,0.0,0.0,63,0.00,SCT,,0.00,WeatherDisplay:10.37,2013-08-04 02:29:00,
2013-08-03 21:34:00,63.5,51.1,30.14,NNW,331,0.0,0.0,64,0.00,SCT,,0.00,WeatherDisplay:10.37,2013-08-04 02:34:00,
2013-08-03 21:39:00,63.3,50.9,30.14,NNW,331,0.0,0.0,64,0.00,SCT,,0.00,WeatherDisplay:10.37,2013-08-04 02:39:00,
2013-08-03 21:43:00,63.2,51.2,30.14,NNW,331,0.0,0.0,65,0.00,SCT,,0.00,WeatherDisplay:10.37,2013-08-04 02:43:00,
2013-08-03 21:49:00,63.4,51.0,30.14,WNW,284,0.0,1.2,64,0.00,SCT,,0.00,WeatherDisplay:10.37,2013-08-04 02:49:00,
2013-08-03 21:54:00,63.3,51.3,30.14,WSW,247,0.0,1.2,65,0.00,SCT,,0.00,WeatherDisplay:10.37,2013-08-04 02:54:00,
2013-08-03 21:59:00,63.2,51.2,30.14,West,261,0.0,1.2,65,0.00,SCT,,0.00,WeatherDisplay:10.37,2013-08-04 02:59:00,
2013-08-03 22:03:00,63.1,51.1,30.14,WSW,243,0.8,1.2,65,0.00,FEW,,0.00,WeatherDisplay:10.37,2013-08-04 03:03:00,
2013-08-03 22:09:00,62.9,51.0,30.14,WSW,243,0.0,0.0,65,0.00,FEW,,0.00,WeatherDisplay:10.37,2013-08-04 03:09:00,
2013-08-03 22:14:00,63.0,51.5,30.14,WNW,301,0.7,2.3,66,0.00,FEW,,0.00,WeatherDisplay:10.37,2013-08-04 03:14:00,
2013-08-03 22:19:00,62.9,51.4,30.14,West,261,0.2,1.2,66,0.00,FEW,,0.00,WeatherDisplay:10.37,2013-08-04 03:19:00,
2013-08-03 22:24:00,62.8,51.3,30.14,West,261,0.0,0.0,66,0.00,FEW,,0.00,WeatherDisplay:10.37,2013-08-04 03:24:00,
2013-08-03 22:29:00,62.3,51.2,30.14,West,261,0.0,0.0,67,0.00,FEW,,0.00,WeatherDisplay:10.37,2013-08-04 03:29:00,
2013-08-03 22:34:00,62.0,51.3,30.14,West,261,0.0,0.0,68,0.00,FEW,,0.00,WeatherDisplay:10.37,2013-08-04 03:34:00,
2013-08-03 22:38:00,62.0,51.3,30.14,West,278,1.3,2.3,68,0.00,FEW,,0.00,WeatherDisplay:10.37,2013-08-04 03:38:00,
2013-08-03 22:43:00,62.2,51.5,30.15,WNW,301,1.6,2.3,68,0.00,FEW,,0.00,WeatherDisplay:10.37,2013-08-04 03:43:00,
2013-08-03 22:49:00,62.5,51.4,30.15,NW,305,1.9,2.3,67,0.00,FEW,,0.00,WeatherDisplay:10.37,2013-08-04 03:49:00,
2013-08-03 22:54:00,62.6,51.1,30.14,WNW,290,1.4,2.3,66,0.00,FEW,,0.00,WeatherDisplay:10.37,2013-08-04 03:54:00,
2013-08-03 22:58:00,62.8,51.3,30.15,NW,314,2.2,3.5,66,0.00,FEW,,0.00,WeatherDisplay:10.37,2013-08-04 03:58:00,
2013-08-03 23:01:00,62.9,51.4,30.15,WNW,291,2.2,3.5,66,0.00,FEW,,0.00,WeatherDisplay:10.37,2013-08-04 04:01:00,
2013-08-03 23:02:00,62.9,51.4,30.15,WNW,298,1.6,2.3,66,0.00,FEW,,0.00,WeatherDisplay:10.37,2013-08-04 04:02:00,
2013-08-03 23:07:00,62.8,51.3,30.15,WNW,294,2.6,3.5,66,0.00,FEW,,0.00,WeatherDisplay:10.37,2013-08-04 04:07:00,
2013-08-03 23:12:00,62.6,51.1,30.15,WSW,256,1.6,4.6,66,0.00,FEW,,0.00,WeatherDisplay:10.37,2013-08-04 04:12:00,
2013-08-03 23:17:00,62.8,51.3,30.15,NW,305,1.6,2.5,66,0.00,FEW,,0.00,WeatherDisplay:10.37,2013-08-04 04:17:00,
2013-08-03 23:22:00,62.9,51.4,30.15,NW,307,1.4,3.5,66,0.00,FEW,,0.00,WeatherDisplay:10.37,2013-08-04 04:22:00,
2013-08-03 23:27:00,62.8,51.3,30.15,WNW,298,2.5,2.5,66,0.00,FEW,,0.00,WeatherDisplay:10.37,2013-08-04 04:27:00,
2013-08-03 23:32:00,63.0,51.0,30.15,West,280,0.8,2.3,65,0.00,FEW,,0.00,WeatherDisplay:10.37,2013-08-04 04:32:00,
2013-08-03 23:37:00,63.0,51.0,30.15,NW,316,0.7,3.5,65,0.00,FEW,,0.00,WeatherDisplay:10.37,2013-08-04 04:37:00,
2013-08-03 23:42:00,62.8,51.3,30.16,NW,326,2.3,3.5,66,0.00,FEW,,0.00,WeatherDisplay:10.37,2013-08-04 04:42:00,
2013-08-03 23:48:00,62.8,51.3,30.16,West,281,1.7,5.8,66,0.00,FEW,,0.00,WeatherDisplay:10.37,2013-08-04 04:48:00,
2013-08-03 23:52:00,62.7,51.2,30.16,WNW,291,2.0,3.5,66,0.00,FEW,,0.00,WeatherDisplay:10.37,2013-08-04 04:52:00,
2013-08-03 23:58:00,62.4,51.3,30.16,SW,228,1.4,2.3,67,0.00,FEW,,0.00,WeatherDisplay:10.37,2013-08-04 04:58:00,